Wolf Point, MT

10:46 AM MDT on August 23, 2017 (GMT -0600)
Clayton

Weather History for KOLF - May, 2013

Change the Weather History Date:

Saturday, May 25, 2013

  Actual Average Record
Temperature  
Mean Temperature 61 °F -  
Max Temperature 79 °F 72 °F 84 °F (2006)
Min Temperature 42 °F 43 °F 28 °F (2004)
Degree Days  
Heating Degree Days 4    
Cooling Degree Days 0    
Growing Degree Days 10 (Base 50)    
Moisture  
Dew Point 49 °F    
Average Humidity 67    
Maximum Humidity 86    
Minimum Humidity 37    
Precipitation  
Precipitation 0.47 in 0.07 in 0.47 in (2013)
Month to date precipitation 0.91 1.22  
Year to date precipitation 1.89 3.14  
Sea Level Pressure  
Sea Level Pressure 29.90 in    
Wind  
Wind Speed 11 mph (ENE)    
Max Wind Speed 26 mph    
Max Gust Speed 31 mph    
Visibility 10 miles    
Events Rain , Thunderstorm    
T = Trace of Precipitation, MM = Missing Value Source: NWS Daily Summary

Daily Weather History Graph

Daily Weather History Graph

Search for Another Location

Airport or City:

Trip Planner

Search our weather history database for the weather conditions in past years. The results will help you decide how hot, cold, wet, or windy it might be!

Date:

Astronomy

May. 25, 2013 Rise Set
Actual Time 5:11 AM MDT 8:47 PM MDT
Civil Twilight 4:32 AM MDT 9:26 PM MDT
Nautical Twilight 3:40 AM MDT 10:18 PM MDT
Astronomical Twilight 2:29 AM MDT 11:31 PM MDT
Moon 9:36 PM MDT (5/25) 5:43 AM MDT (5/25)
Length of Visible Light 16h 53m
Length of Day
15h 35m
Waxing Gibbous, 99% of the Moon is Illuminated
May 25
Waxing Gibbous
May 31
Last Quarter
Jun 8
New
Jun 16
First Quarter
Jun 23
Full

Hourly Weather History & Observations

Time (MDT) Temp. Windchill Dew Point Humidity Pressure Visibility Wind Dir Wind Speed Gust Speed Precip Events Conditions
12:53 AM 44.1 °F 42.5 °F 37.9 °F 79% 29.99 in 10.0 mi NE 3.5 mph - N/A   Clear
1:53 AM 43.0 °F 39.5 °F 37.0 °F 80% 29.98 in 10.0 mi ENE 5.8 mph - N/A   Clear
2:53 AM 44.1 °F 41.5 °F 37.9 °F 79% 29.98 in 10.0 mi ENE 4.6 mph - N/A   Clear
3:53 AM 43.0 °F 41.3 °F 39.0 °F 86% 29.98 in 10.0 mi East 3.5 mph - N/A   Mostly Cloudy
4:53 AM 45.0 °F 41.8 °F 41.0 °F 86% 29.97 in 10.0 mi NE 5.8 mph - 0.00 in   Scattered Clouds
5:53 AM 46.0 °F 42.5 °F 42.1 °F 86% 29.97 in 10.0 mi NE 6.9 mph - N/A   Scattered Clouds
6:53 AM 50.0 °F - 44.1 °F 80% 29.97 in 10.0 mi NE 4.6 mph - N/A   Overcast
7:53 AM 57.0 °F - 46.0 °F 67% 29.95 in 10.0 mi East 8.1 mph - N/A   Mostly Cloudy
8:53 AM 62.1 °F - 46.9 °F 58% 29.96 in 10.0 mi East 8.1 mph - N/A   Mostly Cloudy
9:53 AM 64.9 °F - 48.0 °F 54% 29.94 in 10.0 mi ENE 10.4 mph - N/A   Overcast
10:53 AM 68.0 °F - 41.0 °F 37% 29.91 in 10.0 mi East 21.9 mph 29.9 mph N/A   Overcast
11:53 AM 69.1 °F - 50.0 °F 51% 29.91 in 10.0 mi ENE 17.3 mph - N/A   Overcast
12:53 PM 71.1 °F - 51.1 °F 49% 29.90 in 10.0 mi East 21.9 mph 29.9 mph N/A   Partly Cloudy
1:53 PM 75.0 °F - 50.0 °F 41% 29.88 in 10.0 mi East 21.9 mph 31.1 mph N/A   Clear
2:53 PM 77.0 °F - 48.9 °F 37% 29.86 in 10.0 mi East 21.9 mph 31.1 mph N/A   Clear
3:53 PM 77.0 °F - 54.0 °F 45% 29.84 in 10.0 mi ESE 12.7 mph 20.7 mph N/A   Scattered Clouds
4:53 PM 75.0 °F - 55.0 °F 50% 29.83 in 10.0 mi East 16.1 mph 29.9 mph N/A   Scattered Clouds
5:53 PM 72.0 °F - 55.0 °F 55% 29.83 in 10.0 mi East 16.1 mph 27.6 mph N/A   Scattered Clouds
6:02 PM 71.6 °F - 53.6 °F 53% 29.82 in 10.0 mi East 20.7 mph 26.5 mph N/A Thunderstorm Partly Cloudy
6:53 PM 66.9 °F - 54.0 °F 63% 29.81 in 10.0 mi East 18.4 mph 28.8 mph N/A   Clear
7:00 PM 66.2 °F - 53.6 °F 64% 29.80 in 10.0 mi ENE 18.4 mph - N/A Thunderstorm Thunderstorm
7:35 PM 66.2 °F - 53.6 °F 64% 29.87 in 10.0 mi NNE 12.7 mph - 0.00 in Rain , Thunderstorm Light Thunderstorms and Rain
7:53 PM 63.0 °F - 55.9 °F 78% 29.86 in 4.0 mi NE 12.7 mph - 0.10 in Rain , Thunderstorm Heavy Thunderstorms and Rain
8:53 PM 62.1 °F - 57.0 °F 84% 29.85 in 9.0 mi East 26.5 mph 31.1 mph 0.31 in Rain , Thunderstorm Light Thunderstorms and Rain
9:19 PM 60.8 °F - 53.6 °F 77% 29.93 in 10.0 mi ESE 12.7 mph 21.9 mph 0.03 in Rain Light Rain
9:42 PM 60.8 °F - 55.4 °F 82% 29.92 in 10.0 mi ENE 13.8 mph - 0.06 in Rain , Thunderstorm Light Rain
9:53 PM 61.0 °F - 55.9 °F 83% 29.92 in 10.0 mi ENE 17.3 mph - 0.06 in Rain Light Rain
10:53 PM 59.0 °F - 54.0 °F 83% 29.91 in 10.0 mi East 13.8 mph - 0.00 in   Clear
11:53 PM 59.0 °F - 54.0 °F 83% 29.90 in 10.0 mi East 15.0 mph - N/A   Clear